Date String (YYYY-MM-DD hh:mm:ss) UTC,Instrument flags,absolute air pressure of the measurement (hPa),sample flow rate (lpm),inlet stack bypass flow (lpm),air temperature of the measurement (°C),ambient temperature measured by the external sensor (°C),aerosol sample conditioner tube jacket temperature (°C),OPC LED temperature (°C),internal box temperature (°C),relative humidity of the measurement (%),span deviation,mass concentration of particles derived from Lorenz-Mie calculation of OPC scattering (μg/m³),mass concentration of particles derived from Lorenz-Mie calculation of OPC scattering (μg/m³),mass concentration of particles derived from Lorenz-Mie calculation of OPC scattering (μg/m³)
DateTimeUTC,F1_M11,P_M11,Q1_M11,Q2_M11,T1_M11,T2_M11,T3_M11,T4_M11,T5_M11,U1_M11,ZSPAN_M11,X2_M11,X0_M11,X1_M11
2023-07-04 06:00:00,SystemResetWarning,0831.7,5.01,000.00,029.3,028.2,000.0,037.8,031.0,23.6,0000.0,0004.63,0008.79,0004.13
2023-07-04 06:01:00,SystemResetWarning,0832.1,5.00,000.00,029.3,028.3,000.0,037.8,031.0,23.4,0000.0,0004.57,0008.62,0004.09
2023-07-04 06:02:00,SystemResetWarning,0832.2,4.99,000.00,029.4,028.0,000.0,037.8,031.1,22.7,0000.0,0004.54,0008.54,0004.06
2023-07-04 06:03:00,SystemResetWarning,0831.8,4.99,000.00,029.4,026.2,000.0,037.7,030.9,22.4,0000.0,0004.51,0008.40,0004.03
2023-07-04 06:04:00,SystemResetWarning,0831.7,5.00,000.00,029.3,025.3,000.0,037.6,030.7,22.9,0000.0,0004.48,0008.34,0004.00
2023-07-04 06:05:00,SystemResetWarning,0831.6,5.01,000.00,029.2,025.4,000.0,037.6,030.4,22.8,0000.0,0004.41,0008.23,0003.96
2023-07-04 06:06:00,SystemResetWarning,0831.6,5.01,000.00,029.1,025.7,000.0,037.6,030.4,22.6,0000.0,0004.35,0008.14,0003.92
2023-07-04 06:07:00,SystemResetWarning,0831.5,4.99,000.00,029.1,026.1,000.0,037.6,030.4,22.3,0000.0,0004.31,0008.11,0003.89
2023-07-04 06:08:00,SystemResetWarning,0831.5,5.00,000.00,029.1,026.5,000.0,037.6,030.5,21.9,0000.0,0004.22,0007.92,0003.85
2023-07-04 06:09:00,SystemResetWarning,0831.5,5.00,000.00,029.1,026.8,000.0,037.6,030.6,21.5,0000.0,0004.19,0007.66,0003.82
2023-07-04 06:10:00,SystemResetWarning,0831.5,5.01,000.00,029.1,027.1,000.0,037.6,030.7,21.6,0000.0,0004.12,0007.17,0003.77
2023-07-04 06:11:00,SystemResetWarning,0831.5,5.00,000.00,029.1,027.3,000.0,037.7,030.7,21.3,0000.0,0004.08,0006.71,0003.74
2023-07-04 06:12:00,SystemResetWarning,0831.4,5.00,000.00,029.1,027.5,000.0,037.7,030.8,21.4,0000.0,0004.06,0006.52,0003.72
2023-07-04 06:13:00,SystemResetWarning,0831.4,5.00,000.00,029.2,027.7,000.0,037.7,030.8,21.3,0000.0,0004.04,0006.42,0003.72
2023-07-04 06:14:00,SystemResetWarning,0831.3,5.00,000.00,029.2,027.9,000.0,037.7,030.9,20.7,0000.0,0004.05,0006.49,0003.72
2023-07-04 06:15:00,SystemResetWarning,0831.3,5.00,000.00,029.2,028.0,000.0,037.7,030.9,20.5,0000.0,0004.03,0007.21,0003.71
2023-07-04 06:16:00,SystemResetWarning,0831.3,5.00,000.00,029.3,028.1,000.0,037.7,031.0,20.6,0000.0,0004.06,0007.78,0003.71
2023-07-04 06:17:00,SystemResetWarning,0831.3,5.00,000.00,029.3,028.2,000.0,037.8,031.0,20.7,0000.0,0004.11,0008.34,0003.72
2023-07-04 06:18:00,SystemResetWarning,0831.3,5.00,000.00,029.3,028.3,000.0,037.8,031.1,21.1,0000.0,0004.12,0008.37,0003.73
2023-07-04 06:19:00,SystemResetWarning,0831.3,4.99,000.00,029.4,028.1,000.0,037.8,031.1,21.2,0000.0,0004.14,0008.44,0003.74
2023-07-04 06:20:00,SystemResetWarning,0831.3,4.99,000.00,029.4,026.2,000.0,037.7,030.9,21.6,0000.0,0004.18,0008.85,0003.76
2023-07-04 06:21:00,SystemResetWarning,0831.3,5.00,000.00,029.3,025.2,000.0,037.6,030.8,22.0,0000.0,0004.23,0009.13,0003.79
2023-07-04 06:22:00,SystemResetWarning,0831.3,5.02,000.00,029.2,025.3,000.0,037.6,030.5,22.2,0000.0,0004.29,0009.32,0003.81
2023-07-04 06:23:00,SystemResetWarning,0831.3,4.99,000.00,029.1,025.6,000.0,037.6,030.4,22.3,0000.0,0004.34,0009.42,0003.84
2023-07-04 06:24:00,SystemResetWarning,0831.3,5.00,000.00,029.1,026.0,000.0,037.6,030.5,22.3,0000.0,0004.37,0009.49,0003.87
2023-07-04 06:25:00,SystemResetWarning,0831.3,5.02,000.00,029.1,026.4,000.0,037.6,030.5,22.2,0000.0,0004.39,0009.61,0003.91
2023-07-04 06:26:00,SystemResetWarning,0831.3,4.99,000.00,029.1,026.8,000.0,037.6,030.6,22.1,0000.0,0004.45,0009.49,0003.93
2023-07-04 06:27:00,SystemResetWarning,0831.2,4.99,000.00,029.1,027.1,000.0,037.7,030.7,22.2,0000.0,0004.46,0009.13,0003.97
2023-07-04 06:28:00,SystemResetWarning,0831.3,5.00,000.00,029.1,027.3,000.0,037.7,030.7,22.4,0000.0,0004.50,0008.76,0004.01
2023-07-04 06:29:00,SystemResetWarning,0831.3,5.00,000.00,029.1,027.5,000.0,037.7,030.8,22.2,0000.0,0004.51,0008.69,0004.02
2023-07-04 06:30:00,SystemResetWarning,0831.3,5.00,000.00,029.2,027.7,000.0,037.7,030.8,21.8,0000.0,0004.55,0008.74,0004.06
2023-07-04 06:31:00,SystemResetWarning,0831.3,4.99,000.00,029.2,027.8,000.0,037.7,030.9,21.6,0000.0,0004.61,0008.60,0004.09
2023-07-04 06:32:00,SystemResetWarning,0831.3,5.00,000.00,029.2,027.9,000.0,037.7,030.9,22.0,0000.0,0004.61,0008.36,0004.11
2023-07-04 06:33:00,SystemResetWarning,0831.3,5.00,000.00,029.3,028.0,000.0,037.7,030.9,22.1,0000.0,0004.63,0008.65,0004.14
2023-07-04 06:34:00,SystemResetWarning,0831.2,5.00,000.00,029.3,028.1,000.0,037.8,031.0,22.1,0000.0,0004.66,0008.71,0004.15
2023-07-04 06:35:00,SystemResetWarning,0831.3,5.00,000.00,029.3,028.2,000.0,037.8,031.0,21.2,0000.0,0004.68,0009.14,0004.15
2023-07-04 06:36:00,SystemResetWarning,0831.3,5.00,000.00,029.4,028.3,000.0,037.8,031.0,20.8,0000.0,0004.70,0009.36,0004.16
2023-07-04 06:37:00,SystemResetWarning,0831.3,5.00,000.00,029.4,027.5,000.0,037.8,031.0,20.3,0000.0,0004.68,0009.07,0004.16
2023-07-04 06:38:00,SystemResetWarning,0831.3,5.00,000.00,029.3,025.6,000.0,037.6,030.7,20.1,0000.0,0004.66,0009.00,0004.15
2023-07-04 06:39:00,SystemResetWarning,0831.3,5.00,000.00,029.3,025.1,000.0,037.6,030.5,20.0,0000.0,0004.61,0008.95,0004.11
2023-07-04 06:40:00,SystemResetWarning,0831.3,5.01,000.00,029.1,025.4,000.0,037.6,030.4,20.1,0000.0,0004.56,0008.90,0004.08
2023-07-04 06:41:00,SystemResetWarning,0831.3,5.01,000.00,029.1,025.7,000.0,037.6,030.4,20.1,0000.0,0004.51,0008.89,0004.04
2023-07-04 06:42:00,SystemResetWarning,0831.3,5.00,000.00,029.1,026.1,000.0,037.6,030.4,19.7,0000.0,0004.40,0008.60,0003.99
2023-07-04 06:43:00,SystemResetWarning,0831.3,5.00,000.00,029.1,026.5,000.0,037.6,030.5,19.6,0000.0,0004.35,0008.45,0003.94
2023-07-04 06:44:00,SystemResetWarning,0831.3,4.99,000.00,029.1,026.8,000.0,037.6,030.6,19.8,0000.0,0004.29,0008.35,0003.90
2023-07-04 06:45:00,SystemResetWarning,0831.3,4.99,000.00,029.1,027.1,000.0,037.6,030.6,19.7,0000.0,0004.20,0008.40,0003.85
2023-07-04 06:46:00,SystemResetWarning,0831.3,5.01,000.00,029.1,027.3,000.0,037.6,030.7,20.7,0000.0,0004.10,0008.02,0003.78
2023-07-04 06:47:00,SystemResetWarning,0831.3,5.01,000.00,029.1,027.5,000.0,037.7,030.7,21.0,0000.0,0004.02,0007.67,0003.71
2023-07-04 06:48:00,SystemResetWarning,0831.3,5.00,000.00,029.1,027.6,000.0,037.7,030.7,21.4,0000.0,0003.93,0007.55,0003.63
2023-07-04 06:49:00,SystemResetWarning,0831.4,5.00,000.00,029.2,027.8,000.0,037.7,030.8,21.3,0000.0,0003.87,0007.54,0003.58
2023-07-04 06:50:00,SystemResetWarning,0831.4,5.00,000.00,029.2,027.9,000.0,037.7,030.8,20.5,0000.0,0003.81,0007.39,0003.54
2023-07-04 06:51:00,SystemResetWarning,0831.4,5.00,000.00,029.2,028.0,000.0,037.7,030.9,20.6,0000.0,0003.82,0007.43,0003.53
2023-07-04 06:52:00,SystemResetWarning,0831.4,5.00,000.00,029.3,028.1,000.0,037.7,030.9,20.5,0000.0,0003.81,0007.70,0003.52
2023-07-04 06:53:00,SystemResetWarning,0831.4,5.01,000.00,029.3,028.1,000.0,037.7,030.9,19.3,0000.0,0003.79,0008.22,0003.50
2023-07-04 06:54:00,SystemResetWarning,0831.4,5.00,000.00,029.3,028.2,000.0,037.8,031.0,19.5,0000.0,0003.76,0008.18,0003.49
2023-07-04 06:55:00,SystemResetWarning,0831.4,5.00,000.00,029.4,028.2,000.0,037.8,031.0,20.0,0000.0,0003.77,0008.44,0003.47
2023-07-04 06:56:00,SystemResetWarning,0831.4,5.00,000.00,029.4,028.3,000.0,037.8,031.0,20.7,0000.0,0003.73,0008.02,0003.45
2023-07-04 06:57:00,SystemResetWarning,0831.3,4.98,000.00,029.4,027.9,000.0,037.8,031.1,20.6,0000.0,0003.71,0007.99,0003.45
2023-07-04 06:58:00,SystemResetWarning,0831.3,5.00,000.00,029.4,026.0,000.0,037.7,030.9,19.7,0000.0,0003.72,0007.71,0003.45
2023-07-04 06:59:00,SystemResetWarning,0831.3,5.00,000.00,029.3,025.2,000.0,037.6,030.6,21.5,0000.0,0003.75,0007.79,0003.45
